DW5846 Weather Reports


time (UTC)temp
C
wind
direction
speed
KPH
gust
KPH
rain 1hr
cm
rain 24hr
cm
rain mn
cm
humidity
%
barometer
mb
20260505011531 17 355 4.8 14.5 0.00 0.00 0.00 36 1003.3
20260505010031 18 18 4.8 17.7 0.00 0.00 0.00 35 1003.1
20260505004530 19 15 4.8 25.7 0.00 0.00 0.00 35 1002.5
20260505003029 20 6 6.4 16.1 0.00 0.00 0.00 33 1002.1
20260505001529 20 46 6.4 27.4 0.00 0.00 0.00 35 1001.7
20260505000028 20 12 6.4 20.9 0.00 0.00 0.00 32 1001.9
20260504234528 21 54 6.4 17.7 0.00 0.00 0.00 32 1001.9
20260504233028 22 305 8.0 25.7 0.00 0.00 0.00 31 1001.7
20260504231527 22 310 8.0 25.7 0.00 0.00 0.00 29 1001.6
20260504230027 23 27 9.7 25.7 0.00 0.00 0.00 30 1001.0
20260504224534 24 333 6.4 22.5 0.00 0.00 0.00 29 1000.7
20260504223025 24 10 6.4 27.4 0.00 0.00 0.00 28 1000.5
20260504221524 25 288 9.7 20.9 0.00 0.00 0.00 27 1000.1
20260504220024 26 285 6.4 20.9 0.00 0.00 0.00 29 999.7
20260504214527 25 350 4.8 14.5 0.00 0.00 0.00 32 999.6
20260504213024 25 360 6.4 19.3 0.00 0.00 0.00 31 999.6
20260504211522 25 12 4.8 27.4 0.00 0.00 0.00 36 999.6
20260504210034 26 251 4.8 16.1 0.00 0.00 0.00 32 999.5
20260504204530 26 232 3.2 25.7 0.00 0.00 0.00 33 999.4
20260504203025 26 321 8.0 25.7 0.00 0.00 0.00 33 999.5
20260504201520 26 243 6.4 24.1 0.00 0.00 0.00 31 999.3
20260504200020 27 354 8.0 16.1 0.00 0.00 0.00 31 999.2
20260504194519 27 331 4.8 17.7 0.00 0.00 0.00 34 999.2
20260504193018 27 25 4.8 16.1 0.00 0.00 0.00 30 999.0
20260504191517 27 337 6.4 19.3 0.00 0.00 0.00 31 999.0
20260504190017 27 268 4.8 20.9 0.00 0.00 0.00 28 998.8
20260504184514 27 288 3.2 19.3 0.00 0.00 0.00 26 998.9
20260504183013 27 260 4.8 22.5 0.00 0.00 0.00 27 999.1
20260504181511 27 326 6.4 17.7 0.00 0.00 0.00 27 999.0
20260504180010 27 317 3.2 16.1 0.00 0.00 0.00 28 999.1
20260504174508 26 305 4.8 17.7 0.00 0.00 0.00 30 999.2
20260504173004 26 239 4.8 20.9 0.00 0.00 0.00 32 999.4
20260504171502 26 299 4.8 17.7 0.00 0.00 0.00 36 999.4
20260504081521 7 245 0.0 0.0 0.00 0.00 0.00 74 1001.2
20260504044551 8 245 0.0 0.0 0.00 0.00 0.00 77 1004.2
20260504043054 9 245 0.0 0.0 0.00 0.00 0.00 75 1004.5
20260504041544 10 245 0.0 0.0 0.00 0.00 0.00 74 1004.6
20260504040042 10 245 0.0 0.0 0.00 0.00 0.00 72 1004.6
20260504034544 10 245 0.0 0.0 0.00 0.00 0.00 72 1004.7
20260504033033 11 245 0.0 0.0 0.00 0.00 0.00 72 1004.9
20260504031533 12 245 0.0 0.0 0.00 0.00 0.00 67 1004.8
20260504030034 12 245 0.0 1.6 0.00 0.00 0.00 66 1005.0
20260504024529 12 245 0.0 0.0 0.00 0.00 0.00 64 1005.0
20260504023027 12 245 0.0 1.6 0.00 0.00 0.00 66 1005.0
20260504021526 13 245 0.0 0.0 0.00 0.00 0.00 60 1005.2
20260504020034 13 245 0.0 0.0 0.00 0.00 0.00 58 1005.2
20260504014523 15 245 0.0 0.0 0.00 0.00 0.00 56 1005.2
20260504013031 16 245 0.0 0.0 0.00 0.00 0.00 52 1005.3